[[{"header":{"parameterUnit":"m.s-1","parameterCategory":1,"la1":30.2991,"la2":30.254,"lo1":-89.0895,"lo2":-89.0444,"dy":0.0017,"dx":0.0017,"nx":28,"ny":28,"refTime":"2025-07-06T09:00:00:Z","depth":0,"parameterNumber":2,"parameterNumberName":"U-component_of_WINDS"},"data":[0,0,0,0,0,0,0,0,0,0,0,0,0,0,0,0,0,0,0,0,0,0,0,0,0,0,0,0,0,0,0,0,0,0,0,0,0,0,0,0,0,0,0,0,0,0,0,0,0,0,0,0,0,0,0,0,0,0,4.4421,4.4422,0,4.4561,4.4562,4.4564,4.448,4.4476,4.4472,4.4468,4.4614,4.4622,4.4629,0,0,0,0,0,0,0,0,0,0,0,0,0,4.4081,4.4087,4.4421,4.4422,4.4424,4.456,4.4562,4.4564,4.4481,4.4476,4.4471,4.4467,4.4612,4.4621,4.463,0,0,0,0,0,0,0,0,0,0,0,0,0,4.4225,4.4089,4.442,4.4399,4.4398,4.456,4.4562,4.4565,4.4482,4.4476,4.447,4.4464,4.4609,4.462,4.4631,4.4822,0,0,4.4666,4.4671,0,0,0,0,0,0,0,0,4.4217,4.4238,4.44,4.4401,4.44,4.4497,4.4496,4.4651,4.4484,4.445,4.4468,4.4461,4.458,4.4594,4.4633,4.4829,4.4835,4.4667,4.4674,4.4679,4.4682,0,0,0,0,0,0,0,4.4207,4.4231,4.4476,4.4403,4.4403,4.4382,4.4396,4.4525,4.4548,4.4453,4.4447,4.4465,4.4579,4.4622,4.4636,4.4838,4.4667,4.4677,4.4684,4.4689,4.5192,4.5198,0,0,0,0,0,0,4.4199,4.4224,4.4471,4.448,4.4292,4.4393,4.4409,4.4472,4.4546,4.4551,4.447,4.446,4.4606,4.4623,4.4641,4.4865,4.4679,4.469,4.4696,4.5185,4.5193,4.52,0,0,0,0,0,0,4.4192,4.4222,4.4466,4.435,4.438,4.4405,4.4477,4.4478,4.4521,4.4558,4.4562,4.451,4.4602,4.4625,4.4776,4.4869,4.4695,4.4705,4.5178,4.5188,4.5197,4.5318,0,0,0,0,0,0,4.4182,4.422,4.4293,4.4353,4.4386,4.46,4.4483,4.4485,4.4541,4.453,4.4597,4.4602,4.4599,4.476,4.4788,4.4882,4.4714,4.5169,4.5182,4.5194,4.5306,4.5331,4.5352,0,0,0,0,0,4.4171,4.4323,4.4297,4.4327,4.4478,4.4605,4.4624,4.4616,4.4549,4.4622,4.4645,4.46,4.4855,4.4776,4.4807,4.4906,4.5164,4.5179,4.5193,4.5295,4.5326,4.5352,0,0,0,0,0,0,4.4276,4.4331,4.4302,4.4479,4.4538,4.4591,4.4683,4.465,4.473,4.4716,4.4704,4.472,4.4877,4.4907,4.4818,4.5092,4.4999,4.502,4.5066,4.5095,4.5118,4.5106,4.4724,0,0,0,0,0,4.4319,4.4417,4.446,4.4612,4.4643,4.4658,4.4713,4.4701,4.4762,4.4787,4.4822,4.4883,4.4976,4.5038,4.5126,4.5311,4.5322,4.5393,4.5417,4.5435,4.5453,4.5548,4.5579,4.5248,4.5248,4.5248,0,0,4.4411,4.4453,4.4516,4.4634,4.4678,4.4779,4.468,4.4792,4.4866,4.4804,4.4948,4.4976,4.5043,4.521,4.5286,4.524,4.5547,4.5454,4.5469,4.5476,4.5566,4.5598,4.5625,4.5258,4.5257,4.5255,0,0,4.4627,4.4671,4.4799,4.4845,4.4912,4.492,4.4951,4.5009,4.5024,4.5168,4.5123,4.5211,4.5373,4.5421,4.5467,4.5698,4.5658,4.5728,4.5848,4.594,4.5966,4.5989,4.6067,4.6096,4.5746,4.5747,4.5747,0,4.4732,4.4882,4.487,4.4984,4.5036,4.4983,4.5111,4.5157,4.525,4.5287,4.5234,4.5433,4.5475,4.5651,4.5706,4.5747,4.578,4.5719,4.5963,4.5986,4.6008,4.6082,4.6112,4.5754,4.5753,4.5752,4.5752,0,4.5005,4.511,4.5206,4.5294,4.5357,4.5479,4.5483,4.5549,4.5531,4.5545,4.569,4.5738,4.5833,4.5875,4.586,4.6047,4.6016,4.5965,4.587,4.6047,4.6116,4.6145,4.5765,4.5762,4.576,4.5758,0,0,4.5292,4.537,4.5405,4.5442,4.5511,4.5592,4.571,4.5801,4.5855,4.5921,4.6017,4.6154,4.6105,4.6157,4.6147,4.6229,4.6403,4.6166,4.6167,4.6205,4.6607,4.6643,4.6677,4.6378,4.6384,4.6388,4.66,0,4.551,4.5714,4.5705,4.5895,4.5989,4.5939,4.6041,4.6094,4.611,4.6191,4.6209,4.6304,4.6235,4.6265,4.6344,4.6365,4.6483,4.6351,4.6466,4.647,4.6446,4.6714,4.6753,4.6951,4.6628,4.6633,4.6636,0,4.5791,4.5863,4.6062,4.6112,4.6152,4.6244,4.6323,4.6404,4.6461,4.6467,4.6523,4.6499,4.6616,4.652,4.668,4.659,4.6637,4.6654,4.6662,4.6669,4.6561,4.6725,4.7014,4.7042,4.668,4.6676,4.6673,0,4.5974,4.6122,4.6258,4.6293,4.6357,4.6421,4.6451,4.6503,4.6557,4.6628,4.6662,4.6747,4.6792,4.6858,4.6856,4.6787,4.7017,4.6922,4.7022,4.7022,4.707,4.7067,4.7367,4.7108,4.7107,4.7106,4.7106,0,4.6216,4.6339,4.6341,4.6425,4.656,4.6548,4.6682,4.6705,4.6751,4.6837,4.6801,4.6883,4.6878,4.6961,4.6961,4.7091,4.7113,4.7119,4.7117,4.712,4.7119,4.7148,4.7133,4.7114,4.7113,4.7111,4.711,0,4.6443,4.645,4.6594,4.6642,4.6657,4.6754,4.6794,4.6873,4.6884,4.6994,4.7019,4.7038,4.7133,4.7138,4.7249,4.7249,4.7405,4.739,4.7385,4.738,4.7479,4.7468,4.7806,4.7847,4.7564,4.7567,4.7569,0,4.6595,4.6687,4.6743,4.6798,4.683,4.692,4.6973,4.6965,4.7022,4.7093,4.7163,4.7254,4.7326,4.748,4.7503,4.7586,4.757,4.7683,4.7583,4.7581,4.7567,4.7559,4.7567,4.7701,4.7705,4.7707,4.7709,0,4.6862,4.6859,4.6938,4.7017,4.7081,4.7144,4.7201,4.7248,4.7247,4.7313,4.7408,4.7464,4.7575,4.7664,4.7745,4.7775,4.7741,4.7741,4.7768,4.777,4.7761,4.7763,4.7433,4.7733,4.773,4.7729,4.7727,4.7726,4.7053,4.713,4.7181,4.7268,4.731,4.7364,4.7439,4.7459,4.7538,4.7626,4.7617,4.7722,4.7774,4.7878,4.7915,4.7996,4.7958,4.7998,4.8007,4.8016,4.8024,4.7751,4.8012,4.8011,4.801,4.801,4.8009,0,4.7313,4.7343,4.7423,4.7503,4.7572,4.7534,4.7595,4.7654,4.7746,4.7798,4.7868,4.7976,4.8062,4.8091,4.8174,4.8233,4.822,4.8255,4.8249,4.8255,4.8056,4.8023,4.8264,4.8264,4.8264,4.8264,4.8264,4.8264,4.7457,4.7585,4.7589,4.7737,4.7765,4.7866,4.7904,4.7952,4.7993,4.8114,4.8184,4.8202,4.8244,4.8329,4.8406,4.8412,4.8442,4.8484,4.8483,4.8296,4.827,4.8245,4.8213,4.8491,4.8492,4.8675,4.8676,4.8678]},{"header":{"parameterUnit":"m.s-1","parameterCategory":1,"la1":30.2991,"la2":30.254,"lo1":-89.0895,"lo2":-89.0444,"dy":0.0017,"dx":0.0017,"nx":28,"ny":28,"refTime":"2025-07-06T09:00:00:Z","depth":0,"parameterNumber":3,"parameterNumberName":"V-component_of_WINDS"},"data":[0,0,0,0,0,0,0,0,0,0,0,0,0,0,0,0,0,0,0,0,0,0,0,0,0,0,0,0,0,0,0,0,0,0,0,0,0,0,0,0,0,0,0,0,0,0,0,0,0,0,0,0,0,0,0,0,0,0,2.9523,2.9523,0,2.9562,2.9562,2.9563,2.9505,2.9503,2.9501,2.95,2.954,2.9543,2.9546,0,0,0,0,0,0,0,0,0,0,0,0,0,2.9397,2.9399,2.9522,2.9523,2.9523,2.9562,2.9562,2.9563,2.9506,2.9503,2.9501,2.9499,2.9539,2.9542,2.9546,0,0,0,0,0,0,0,0,0,0,0,0,0,2.9445,2.94,2.9522,2.95,2.9498,2.9561,2.9562,2.9563,2.9506,2.9503,2.95,2.9497,2.9538,2.9542,2.9547,2.9634,0,0,2.956,2.9562,0,0,0,0,0,0,0,0,2.9443,2.945,2.9503,2.9501,2.95,2.9526,2.9533,2.9587,2.9507,2.9503,2.9499,2.9496,2.9538,2.9542,2.9556,2.9636,2.9638,2.956,2.9563,2.9565,2.9566,0,0,0,0,0,0,0,2.9439,2.9448,2.9538,2.9503,2.9502,2.9487,2.9491,2.9543,2.9537,2.9503,2.9499,2.9505,2.9536,2.9552,2.9556,2.9638,2.956,2.9564,2.9567,2.9569,2.9789,2.9792,0,0,0,0,0,0,2.9439,2.9446,2.9537,2.9539,2.9463,2.9492,2.9496,2.952,2.9536,2.9536,2.9507,2.9502,2.9546,2.9551,2.9558,2.9659,2.9565,2.9569,2.9572,2.9786,2.979,2.9793,0,0,0,0,0,0,2.9436,2.9448,2.9535,2.9491,2.9501,2.9497,2.9525,2.9523,2.9538,2.9539,2.9538,2.9524,2.9544,2.9551,2.9615,2.966,2.9571,2.9575,2.9782,2.9787,2.9792,2.9864,0,0,0,0,0,0,2.9433,2.9447,2.9481,2.9492,2.9504,2.9592,2.9528,2.9526,2.9546,2.9539,2.9555,2.9554,2.9542,2.9608,2.9619,2.9664,2.9579,2.9778,2.9784,2.979,2.9857,2.9871,2.9882,0,0,0,0,0,2.9429,2.95,2.9483,2.9494,2.9546,2.9595,2.9602,2.9586,2.955,2.9583,2.9583,2.9554,2.9653,2.9616,2.9627,2.9674,2.9775,2.9783,2.979,2.9852,2.9868,2.9882,0,0,0,0,0,0,2.9495,2.9502,2.9482,2.956,2.9577,2.9585,2.9627,2.9604,2.9632,2.9625,2.9604,2.9607,2.9675,2.9681,2.9639,2.9758,2.9708,2.9718,2.9752,2.9767,2.9779,2.9775,2.9582,0,0,0,0,0,2.9519,2.9558,2.9562,2.963,2.9639,2.9632,2.9653,2.9639,2.9656,2.9663,2.9668,2.9686,2.9721,2.9744,2.9777,2.9858,2.9859,2.9896,2.9908,2.9918,2.9927,2.9967,2.9983,2.9817,2.9817,2.9817,0,0,2.9568,2.9576,2.9603,2.9643,2.9655,2.9695,2.9639,2.9685,2.9714,2.967,2.973,2.9734,2.9752,2.9824,2.9856,2.9831,2.9973,2.9927,2.9935,2.9938,2.9976,2.9992,3.0006,2.9822,2.9821,2.982,0,0,2.9678,2.9689,2.9746,2.9758,2.9776,2.9771,2.9784,2.9796,2.9796,2.9856,2.9823,2.9857,2.9919,2.9932,2.9947,3.0059,3.0032,3.0071,3.0134,3.0174,3.0187,3.0198,3.0236,3.0251,3.0079,3.008,3.008,0,2.9737,2.9797,2.9778,2.9825,2.9843,2.9805,2.9861,2.9874,2.9902,2.9915,2.9887,2.9961,2.9971,3.0044,3.0071,3.0085,3.0099,3.0069,3.0187,3.0198,3.0208,3.0244,3.0259,3.0084,3.0083,3.0083,3.0082,0,2.9867,2.9909,2.9952,2.9979,3.0002,3.0054,3.0042,3.0067,3.0051,3.0048,3.0107,3.0117,3.015,3.0166,3.0152,3.0237,3.0221,3.019,3.0139,3.0229,3.0262,3.0276,3.009,3.0089,3.0087,3.0086,0,0,3.0021,3.0035,3.0051,3.0061,3.0077,3.0109,3.0158,3.0189,3.021,3.0231,3.027,3.0322,3.0293,3.031,3.0296,3.0331,3.0417,3.0296,3.0296,3.0316,3.0509,3.0531,3.0547,3.0399,3.0402,3.0404,3.0506,0,3.0129,3.0213,3.0196,3.0279,3.0316,3.0279,3.0321,3.0335,3.0333,3.0364,3.0361,3.0397,3.0357,3.0367,3.04,3.0399,3.0455,3.0392,3.0434,3.0436,3.0429,3.0565,3.0588,3.0685,3.052,3.0522,3.0523,0,3.0266,3.029,3.0376,3.0383,3.0398,3.0437,3.0462,3.0493,3.0507,3.0503,3.0521,3.0499,3.0547,3.0496,3.056,3.0517,3.0534,3.0536,3.0539,3.0541,3.0484,3.0569,3.0716,3.0729,3.0544,3.0543,3.0541,0,3.0367,3.042,3.0478,3.0488,3.0499,3.0527,3.0533,3.0544,3.0563,3.0585,3.0597,3.0625,3.064,3.0662,3.0648,3.0613,3.0714,3.0663,3.0711,3.0711,3.0733,3.0731,3.0882,3.0746,3.0746,3.0746,3.0746,0,3.0488,3.0541,3.0523,3.0558,3.0616,3.0596,3.0654,3.0655,3.0665,3.0699,3.0669,3.0702,3.0682,3.0713,3.0703,3.0756,3.0764,3.076,3.0757,3.0762,3.0762,3.0772,3.0764,3.075,3.0749,3.0748,3.0747,0,3.061,3.06,3.0659,3.0664,3.0667,3.0709,3.0713,3.0745,3.074,3.0783,3.0792,3.0785,3.0819,3.0807,3.0845,3.0837,3.0904,3.0893,3.0899,3.0896,3.0944,3.0939,3.1105,3.1125,3.0978,3.0979,3.098,0,3.0687,3.0727,3.0735,3.0756,3.0763,3.0797,3.0815,3.0797,3.0817,3.0835,3.0865,3.0896,3.092,3.0977,3.0974,3.1002,3.099,3.1046,3.0994,3.0997,3.0988,3.0985,3.0988,3.1056,3.1058,3.1059,3.106,0,3.0824,3.0817,3.0845,3.087,3.0893,3.0912,3.0929,3.0947,3.093,3.0954,3.0988,3.1007,3.1044,3.1075,3.1099,3.1104,3.1079,3.1077,3.1089,3.1094,3.1095,3.1093,3.0926,3.1073,3.1072,3.1071,3.107,3.107,3.0925,3.0957,3.0968,3.0999,3.1009,3.1025,3.1055,3.1053,3.1081,3.1109,3.1096,3.1135,3.1146,3.1177,3.1185,3.1215,3.1193,3.1211,3.1215,3.122,3.1225,3.1092,3.1219,3.1219,3.1219,3.1218,3.1218,0,3.1059,3.1063,3.1092,3.1115,3.1139,3.1113,3.113,3.1152,3.1186,3.1199,3.1222,3.126,3.129,3.1289,3.1316,3.134,3.1328,3.1347,3.1344,3.1345,3.1244,3.123,3.1355,3.1355,3.1355,3.1355,3.1355,3.1355,3.1131,3.1184,3.1177,3.1234,3.1238,3.1275,3.1287,3.1301,3.131,3.1354,3.1378,3.1377,3.1383,3.141,3.1435,3.1434,3.1445,3.1467,3.1462,3.1367,3.1353,3.134,3.1326,3.147,3.147,3.156,3.1561,3.1562]}]]